When you browse on this site, cookies collect data to enhance your experience and personalize the content and advertising you see.
Visit our Privacy Policy to learn more. By continuing to use the site, you agree to this use of cookies and data.
  • In Slovakia
  • List of Countries
  • For 7 days
  • Water Temperature
  • Satellite Maps
  • Weather Map
  • Weather Widgets
  • user-avatar
    Login

    Hourly Weather Korçe

    Today, 19 February, Tuesday

    Time Temperature Precipitation Wind Pressure Humidity
    00:00 +3°C° 0 mm 1 mps 669 mmHg 74%
    01:00 +3°C° 0 mm 1 mps 669 mmHg 74%
    02:00 +3°C° 0 mm 1 mps 668 mmHg 75%
    03:00 +3°C° 0 mm 1 mps 668 mmHg 76%
    04:00 +2°C° 0 mm 1 mps 668 mmHg 77%
    05:00 +2°C° 0 mm 1 mps 668 mmHg 76%
    06:00 +2°C° 0 mm 1 mps 668 mmHg 74%
    07:00 +2°C° 0 mm 1 mps 668 mmHg 73%
    08:00 +5°C° 0 mm 1 mps 669 mmHg 65%
    09:00 +7°C° 0 mm 1 mps 669 mmHg 56%
    10:00 +9°C° 0 mm 1 mps 670 mmHg 47%
    11:00 +9°C° 0 mm 1 mps 670 mmHg 45%
    12:00 +10°C° 0 mm 1 mps 670 mmHg 43%
    13:00 +10°C° 0 mm 2 mps 670 mmHg 41%
    14:00 +9°C° 0 mm 2 mps 670 mmHg 44%
    15:00 +9°C° 0 mm 2 mps 669 mmHg 48%
    16:00 +9°C° 0 mm 2 mps 669 mmHg 52%
    17:00 +8°C° 0 mm 1 mps 669 mmHg 62%
    18:00 +6°C° 0 mm 1 mps 668 mmHg 72%
    19:00 +4°C° 0 mm 1 mps 668 mmHg 82%
    20:00 +4°C° 0 mm 1 mps 668 mmHg 85%
    21:00 +2°C° 0 mm 0 mps 668 mmHg 88%
    22:00 +2°C° 0 mm 0 mps 668 mmHg 91%
    23:00 +2°C° 0 mm 0 mps 668 mmHg 92%

    Tomorrow, 20 February, Wednesday

    Time Temperature Precipitation Wind Pressure Humidity
    00:00 +1°C° 0 mm 0 mps 668 mmHg 92%
    01:00 +1°C° 0 mm 0 mps 668 mmHg 93%
    02:00 +1°C° 0 mm 0 mps 668 mmHg 93%
    03:00 +1°C° 0 mm 0 mps 667 mmHg 93%
    04:00 +1°C° 0 mm 0 mps 667 mmHg 93%
    05:00 +1°C° 0 mm 0 mps 667 mmHg 92%
    06:00 +1°C° 0 mm 0 mps 667 mmHg 90%
    07:00 +1°C° 0 mm 0 mps 667 mmHg 89%
    08:00 +4°C° 0 mm 1 mps 668 mmHg 76%
    09:00 +6°C° 0 mm 1 mps 669 mmHg 62%
    10:00 +7°C° 0 mm 2 mps 669 mmHg 49%
    11:00 +7°C° 0 mm 2 mps 669 mmHg 46%
    12:00 +8°C° 0 mm 2 mps 669 mmHg 44%
    13:00 +9°C° 0 mm 2 mps 670 mmHg 41%
    14:00 +9°C° 0 mm 2 mps 669 mmHg 45%
    15:00 +8°C° 0 mm 2 mps 669 mmHg 48%
    16:00 +8°C° 0 mm 2 mps 669 mmHg 52%
    17:00 +6°C° 0 mm 2 mps 669 mmHg 61%
    18:00 +5°C° 0 mm 2 mps 669 mmHg 69%
    19:00 +4°C° 0 mm 1 mps 669 mmHg 78%
    20:00 +4°C° 0 mm 1 mps 669 mmHg 79%
    21:00 +3°C° 0 mm 1 mps 669 mmHg 80%
    22:00 +3°C° 0 mm 1 mps 669 mmHg 80%
    23:00 +3°C° 0 mm 1 mps 669 mmHg 78%

    Day after tomorrow, 21 February, Thursday

    Time Temperature Precipitation Wind Pressure Humidity
    00:00 +3°C° 0 mm 1 mps 669 mmHg 77%
    01:00 +3°C° 0 mm 1 mps 669 mmHg 75%
    02:00 +2°C° 0 mm 1 mps 669 mmHg 74%
    03:00 +2°C° 0 mm 1 mps 669 mmHg 73%
    04:00 +2°C° 0 mm 1 mps 669 mmHg 72%
    05:00 +2°C° 0 mm 1 mps 669 mmHg 72%
    06:00 +2°C° 0 mm 1 mps 670 mmHg 72%
    07:00 +2°C° 0 mm 1 mps 670 mmHg 72%
    08:00 +5°C° 0 mm 1 mps 670 mmHg 64%
    09:00 +7°C° 0 mm 1 mps 671 mmHg 56%
    10:00 +9°C° 0 mm 1 mps 672 mmHg 48%
    11:00 +10°C° 0 mm 1 mps 672 mmHg 45%
    12:00 +11°C° 0 mm 1 mps 672 mmHg 42%
    13:00 +12°C° 0 mm 1 mps 672 mmHg 39%
    14:00 +11°C° 0 mm 1 mps 672 mmHg 42%
    15:00 +11°C° 0 mm 1 mps 672 mmHg 45%
    16:00 +9°C° 0 mm 2 mps 671 mmHg 48%
    17:00 +8°C° 0 mm 2 mps 671 mmHg 57%
    18:00 +7°C° 0 mm 1 mps 671 mmHg 65%
    19:00 +5°C° 0 mm 1 mps 670 mmHg 74%
    20:00 +5°C° 0 mm 1 mps 670 mmHg 75%
    21:00 +4°C° 0 mm 1 mps 670 mmHg 77%
    22:00 +4°C° 0 mm 1 mps 670 mmHg 78%
    23:00 +4°C° 0 mm 1 mps 670 mmHg 79%

    22 February, Friday

    Time Temperature Precipitation Wind Pressure Humidity
    00:00 +3°C° 0 mm 1 mps 670 mmHg 81%
    01:00 +3°C° 0 mm 1 mps 670 mmHg 82%
    02:00 +3°C° 0 mm 1 mps 669 mmHg 83%
    03:00 +3°C° 0 mm 1 mps 669 mmHg 85%
    04:00 +2°C° 0 mm 1 mps 668 mmHg 86%
    05:00 +2°C° 0 mm 1 mps 668 mmHg 86%
    06:00 +2°C° 0 mm 1 mps 668 mmHg 85%
    07:00 +3°C° 0 mm 1 mps 668 mmHg 85%
    08:00 +3°C° 0 mm 2 mps 668 mmHg 79%
    09:00 +5°C° 0 mm 2 mps 669 mmHg 73%
    10:00 +5°C° 0 mm 3 mps 669 mmHg 67%
    11:00 +7°C° 0 mm 3 mps 668 mmHg 66%
    12:00 +7°C° 0 mm 3 mps 668 mmHg 66%
    13:00 +7°C° 0 mm 3 mps 667 mmHg 66%
    14:00 +7°C° 0 mm 3 mps 666 mmHg 68%
    15:00 +7°C° 0 mm 3 mps 666 mmHg 70%
    16:00 +5°C° 0 mm 3 mps 665 mmHg 72%
    17:00 +4°C° 0.1 mm 3 mps 665 mmHg 77%
    18:00 +4°C° 0.1 mm 2 mps 664 mmHg 83%
    19:00 +3°C° 0.1 mm 2 mps 664 mmHg 89%
    20:00 +3°C° 0 mm 2 mps 664 mmHg 89%
    21:00 +2°C° 0 mm 2 mps 664 mmHg 88%
    22:00 +2°C° 0 mm 2 mps 664 mmHg 88%
    23:00 +2°C° 0 mm 2 mps 664 mmHg 87%

    23 February, Saturday

    Time Temperature Precipitation Wind Pressure Humidity
    00:00 +1°C° 0 mm 2 mps 663 mmHg 86%
    01:00 +1°C° 0 mm 2 mps 663 mmHg 86%
    02:00 +1°C° 0 mm 2 mps 663 mmHg 85%
    03:00 +1°C° 0 mm 2 mps 663 mmHg 85%
    04:00 +1°C° 0 mm 2 mps 663 mmHg 84%
    05:00 -1°C° 0 mm 2 mps 663 mmHg 81%
    06:00 -1°C° 0 mm 3 mps 663 mmHg 78%
    07:00 -1°C° 0 mm 3 mps 663 mmHg 76%
    08:00 -1°C° 0 mm 3 mps 664 mmHg 69%
    09:00 -2°C° 0 mm 4 mps 664 mmHg 63%
    10:00 -2°C° 0 mm 5 mps 665 mmHg 56%
    11:00 -2°C° 0 mm 5 mps 665 mmHg 54%
    12:00 -1°C° 0 mm 5 mps 665 mmHg 52%
    13:00 -2°C° 0 mm 6 mps 665 mmHg 50%
    14:00 -3°C° 0 mm 6 mps 665 mmHg 47%
    15:00 -4°C° 0 mm 6 mps 665 mmHg 45%
    16:00 -5°C° 0 mm 6 mps 665 mmHg 42%
    17:00 -6°C° 0 mm 5 mps 665 mmHg 42%
    18:00 -7°C° 0 mm 5 mps 665 mmHg 41%
    19:00 -8°C° 0 mm 4 mps 665 mmHg 41%
    20:00 -8°C° 0 mm 4 mps 666 mmHg 40%
    21:00 -9°C° 0 mm 4 mps 666 mmHg 38%
    22:00 -9°C° 0 mm 4 mps 666 mmHg 37%
    23:00 -9°C° 0 mm 4 mps 666 mmHg 35%

    24 February, Sunday

    Time Temperature Precipitation Wind Pressure Humidity
    00:00 -9°C° 0 mm 4 mps 666 mmHg 33%
    01:00 -9°C° 0 mm 3 mps 666 mmHg 32%
    02:00 -9°C° 0 mm 3 mps 665 mmHg 34%
    03:00 -9°C° 0 mm 3 mps 665 mmHg 35%
    04:00 -9°C° 0 mm 3 mps 665 mmHg 37%
    05:00 -9°C° 0 mm 3 mps 665 mmHg 40%
    06:00 -9°C° 0 mm 3 mps 665 mmHg 42%
    07:00 -10°C° 0 mm 3 mps 665 mmHg 44%
    08:00 -9°C° 0 mm 4 mps 666 mmHg 41%
    09:00 -8°C° 0 mm 4 mps 666 mmHg 38%
    10:00 -7°C° 0 mm 5 mps 667 mmHg 34%
    11:00 -6°C° 0 mm 5 mps 666 mmHg 33%
    12:00 -6°C° 0 mm 5 mps 666 mmHg 31%
    13:00 -5°C° 0 mm 6 mps 666 mmHg 30%
    14:00 -5°C° 0 mm 6 mps 666 mmHg 32%
    15:00 -6°C° 0 mm 6 mps 666 mmHg 35%
    16:00 -6°C° 0 mm 6 mps 666 mmHg 37%
    17:00 -7°C° 0 mm 5 mps 666 mmHg 42%
    18:00 -8°C° 0 mm 4 mps 666 mmHg 47%
    19:00 -8°C° 0 mm 3 mps 666 mmHg 53%
    20:00 -8°C° 0 mm 3 mps 666 mmHg 54%
    21:00 -8°C° 0 mm 3 mps 665 mmHg 55%
    22:00 -9°C° 0 mm 3 mps 665 mmHg 56%
    23:00 -9°C° 0 mm 3 mps 665 mmHg 56%
    Show more